DW6558 Weather Reports


time (UTC)temp
F
wind
direction
speed
knots
gust
knots
rain 1hr
in
rain 24hr
in
rain mn
in
humidity
%
barometer
mb
20260901081154 54 54 0.0 0.0 0.00 0.00 0.00 94 934.5
20260901080649 54 22 0.0 0.0 0.00 0.00 0.00 94 934.9
20260901080148 54 39 0.0 0.0 0.00 0.00 0.00 95 934.8
20260901075643 54 41 0.0 0.0 0.00 0.00 0.00 95 934.8
20260901075142 54 40 0.0 0.0 0.00 0.00 0.00 95 934.8
20260901074642 54 43 0.0 0.0 0.00 0.00 0.00 95 935.0
20260901074137 54 30 0.0 0.0 0.00 0.00 0.00 95 934.8
20260901073633 54 23 0.0 0.0 0.00 0.00 0.00 95 934.8
20260901073129 55 34 0.0 0.0 0.00 0.00 0.00 95 934.8
20260901072624 55 35 0.0 0.0 0.00 0.00 0.00 95 935.0
20260901072119 54 34 0.0 0.0 0.00 0.00 0.00 95 934.9
20260901071619 54 32 0.0 0.0 0.00 0.00 0.00 95 935.1
20260901071119 54 34 0.0 0.0 0.00 0.00 0.00 95 935.1
20260901070613 54 61 0.0 0.0 0.00 0.00 0.00 95 935.0
20260901070109 55 42 0.0 0.0 0.00 0.00 0.00 95 934.9
20260901065603 54 43 0.0 0.0 0.00 0.00 0.00 95 934.9
20260901065102 55 72 0.0 0.0 0.00 0.00 0.00 95 935.1
20260901064600 54 32 0.0 0.0 0.00 0.00 0.00 95 934.8
20260901064056 54 36 0.0 0.0 0.00 0.00 0.00 94 934.9
20260901063552 54 40 0.0 0.0 0.00 0.00 0.00 94 934.8
20260901063048 54 48 0.0 0.0 0.00 0.00 0.00 94 934.8
20260901062544 54 41 0.0 0.0 0.00 0.00 0.00 94 934.8
20260901062039 55 55 0.0 0.0 0.00 0.00 0.00 94 934.9
20260901061536 54 33 0.0 0.0 0.00 0.00 0.00 94 935.0
20260901061031 55 23 0.0 0.0 0.00 0.00 0.00 94 935.0
20260901060530 55 32 0.0 0.0 0.00 0.00 0.00 94 934.9
20260901060026 55 77 0.0 0.0 0.00 0.14 0.14 94 934.9
20260901055521 55 57 0.0 0.0 0.00 0.14 0.14 94 935.1
20260901055018 55 46 0.0 0.0 0.00 0.14 0.14 94 935.3
20260901054515 55 52 0.0 0.0 0.00 0.14 0.14 94 935.1
20260901054010 55 40 0.0 0.0 0.00 0.14 0.14 94 935.3
20260901053506 55 61 0.0 0.0 0.00 0.14 0.14 94 935.5
20260901053001 56 92 0.0 0.0 0.00 0.14 0.14 93 935.2
20260901052457 55 54 0.0 0.0 0.00 0.14 0.14 93 935.7
20260901051955 56 80 0.0 0.0 0.00 0.14 0.14 93 935.6
20260901051452 56 127 0.0 0.0 0.00 0.14 0.14 93 935.3
20260901050950 56 82 0.0 0.0 0.00 0.14 0.14 93 935.7
20260901050446 56 45 0.0 0.0 0.00 0.14 0.14 93 935.3
20260901045946 56 44 0.0 0.0 0.00 0.14 0.14 93 935.6
20260901045441 56 32 0.0 0.0 0.00 0.14 0.14 92 935.6
20260901044936 57 51 0.0 0.0 0.00 0.14 0.14 92 936.0
20260901044432 56 45 0.0 0.0 0.00 0.14 0.14 92 935.8
20260901043928 57 75 0.0 0.0 0.00 0.14 0.14 92 936.1
20260901043424 57 65 0.0 0.0 0.00 0.14 0.14 92 936.0
20260901042918 56 42 0.0 0.0 0.00 0.14 0.14 92 936.4
20260901042412 56 42 0.0 0.0 0.00 0.14 0.14 92 936.6
20260901041908 56 42 0.0 0.0 0.00 0.14 0.14 91 936.6
20260901041403 56 78 0.0 0.0 0.00 0.14 0.14 91 936.6
20260901040902 56 38 0.0 0.0 0.00 0.14 0.14 91 936.5
20260901040402 56 55 0.0 0.0 0.00 0.14 0.14 91 936.9
20260901035901 57 54 0.0 0.0 0.00 0.14 0.14 91 936.8
20260901035400 56 40 0.0 0.0 0.00 0.14 0.14 91 936.7
20260901034858 56 48 0.0 0.0 0.00 0.14 0.14 91 936.8
20260901034353 57 62 0.0 0.0 0.00 0.14 0.14 91 936.8
20260901033849 57 49 0.0 0.0 0.00 0.14 0.14 90 936.9
20260901033348 57 43 0.0 0.0 0.00 0.14 0.14 90 936.9
20260901032846 57 38 0.0 0.0 0.07 0.14 0.14 90 937.2
20260901032346 57 64 0.0 0.0 0.07 0.14 0.14 89 937.0
20260901031841 57 53 0.0 0.0 0.00 0.13 0.13 89 936.8
20260901031337 57 47 0.0 0.0 0.00 0.13 0.13 88 936.8
20260901030837 57 77 0.0 0.0 0.00 0.13 0.13 88 936.8
20260901030333 57 62 0.0 0.0 0.00 0.13 0.13 88 936.9
20260901025832 57 57 0.0 0.0 0.00 0.13 0.13 88 936.6
20260901025327 57 74 0.0 0.0 0.00 0.13 0.13 88 936.6
20260901024827 57 56 0.0 0.0 0.00 0.13 0.13 88 936.8
20260901024326 57 56 0.0 0.9 0.00 0.13 0.13 88 936.6
20260901023824 57 70 1.7 1.7 0.00 0.13 0.13 87 936.6
20260901023319 57 45 0.0 0.0 0.00 0.13 0.13 87 936.7
20260901022815 57 39 1.7 1.7 0.00 0.13 0.13 87 936.8
20260901022310 58 37 0.0 0.9 0.00 0.13 0.13 86 936.6
20260901021805 58 57 0.9 1.7 0.05 0.13 0.13 85 936.6
20260901021301 58 26 0.0 0.0 0.05 0.13 0.13 84 936.9
20260901020756 58 29 0.0 0.9 0.00 0.12 0.12 83 936.7
20260901020251 58 35 0.0 0.0 0.00 0.12 0.12 82 936.6
20260901015746 58 8 1.7 1.7 0.12 0.12 0.12 81 936.7
20260901015242 59 220 0.9 4.3 0.12 0.11 0.11 79 936.5
20260901014741 60 296 4.3 5.2 0.00 0.09 0.09 77 936.5
20260901014237 60 281 2.6 5.2 0.00 0.09 0.09 75 936.2
20260901013733 61 220 2.6 4.3 0.00 0.09 0.09 73 936.0
20260901013234 62 260 4.3 7.0 0.00 0.09 0.09 69 935.8
20260901012729 62 218 0.0 1.7 0.00 0.09 0.09 66 935.7
20260901012229 62 37 0.0 7.0 0.00 0.09 0.09 64 935.6
20260901011725 62 53 6.1 11.3 0.00 0.09 0.09 67 935.2
20260901011220 63 141 2.6 11.3 0.00 0.09 0.09 68 935.6
20260901010714 64 157 4.3 11.3 0.00 0.09 0.09 66 935.2
20260901010209 65 156 4.3 8.7 0.00 0.09 0.09 65 935.0
20260901005707 65 140 1.7 2.6 0.00 0.09 0.09 65 934.8
20260901005203 65 61 0.0 0.0 0.00 0.09 0.09 65 934.8
20260901004703 65 62 0.0 0.0 0.00 0.09 0.09 63 934.7
20260901004158 65 62 0.0 0.0 0.00 0.09 0.09 62 934.8
20260901003657 65 62 0.0 0.0 0.00 0.09 0.09 59 935.1
20260901003157 65 63 0.0 0.0 0.00 0.09 0.09 59 935.1
20260901002651 65 72 1.7 1.7 0.00 0.09 0.09 62 935.2
20260901002146 65 73 0.0 0.0 0.00 0.09 0.09 64 935.2
20260901001641 65 53 0.0 1.7 0.00 0.09 0.09 63 935.2
20260901001136 65 60 0.0 0.0 0.00 0.09 0.09 62 935.5
20260901000632 65 71 0.0 2.6 0.00 0.09 0.09 62 935.5
20260901000127 65 42 0.0 0.0 0.00 0.09 0.09 63 935.8
20260831235620 65 78 0.0 0.0 0.00 0.09 0.09 61 935.7
20260831235116 65 26 0.0 0.0 0.00 0.09 0.09 62 935.6
20260831234615 65 17 0.0 0.0 0.00 0.09 0.09 62 935.6
20260831234111 65 37 0.0 0.9 0.00 0.09 0.09 62 935.5
20260831233606 65 9 0.9 2.6 0.00 0.09 0.09 65 935.5
20260831233102 66 287 2.6 4.3 0.00 0.09 0.09 64 935.2
20260831232557 65 78 0.0 6.1 0.00 0.09 0.09 62 935.3
20260831232053 66 142 1.7 2.6 0.00 0.09 0.09 65 935.2
20260831231549 65 55 0.9 2.6 0.00 0.09 0.09 64 935.3
20260831231044 65 123 2.6 4.3 0.00 0.09 0.09 63 935.0
20260831230539 65 66 1.7 2.6 0.00 0.09 0.09 65 934.9
20260831230039 64 147 2.6 4.3 0.00 0.09 0.09 68 935.0
20260831225535 65 38 0.0 1.7 0.00 0.09 0.09 71 934.9
20260831225035 64 57 1.7 2.6 0.00 0.09 0.09 67 934.5
20260831224530 65 52 3.5 5.2 0.00 0.09 0.09 64 934.7
20260831224026 64 25 2.6 7.0 0.00 0.09 0.09 63 934.9
20260831223521 64 5 4.3 7.0 0.00 0.09 0.09 62 934.9
20260831223017 64 23 0.9 5.2 0.00 0.09 0.09 65 935.0
20260831222514 62 326 4.3 6.1 0.00 0.09 0.09 72 934.9
20260831222013 62 336 3.5 7.0 0.00 0.09 0.09 77 935.0
20260831221509 61 6 6.1 8.7 0.00 0.09 0.09 79 935.0
20260831221004 60 12 3.5 5.2 0.00 0.09 0.09 80 935.0
20260831220459 60 317 2.6 5.2 0.00 0.09 0.09 79 935.1
20260831215954 60 7 1.7 4.3 0.00 0.09 0.09 82 935.0
20260831215449 61 344 0.0 0.0 0.00 0.09 0.09 76 935.0
20260831214946 60 89 2.6 5.2 0.05 0.09 0.09 74 934.9
20260831214443 60 125 2.6 5.2 0.31 0.09 0.09 75 935.0
20260831213938 63 151 6.1 14.8 0.31 0.08 0.08 71 934.8
20260831213435 66 153 7.8 12.2 0.05 0.04 0.04 70 934.5
20260831212935 67 146 0.9 2.6 0.00 0.03 0.03 66 934.5
20260831212431 68 142 1.7 4.3 0.00 0.03 0.03 62 934.7
20260831211931 69 94 2.6 5.2 0.00 0.03 0.03 54 934.8
20260831211426 69 121 2.6 4.3 0.00 0.03 0.03 53 934.9
20260831210925 69 91 2.6 6.1 0.00 0.03 0.03 53 935.0
20260831210421 69 114 5.2 7.0 0.00 0.03 0.03 54 934.8
20260831205916 70 62 0.0 5.2 0.00 0.03 0.03 53 934.9
20260831205412 68 157 0.9 6.1 0.00 0.03 0.03 53 935.0
20260831204912 67 144 4.3 7.8 0.00 0.03 0.03 58 934.9
20260831204412 66 268 7.0 8.7 0.00 0.03 0.03 62 935.0
20260831203911 64 129 3.5 6.1 0.00 0.03 0.03 62 935.1
20260831203406 61 110 3.5 6.1 0.07 0.03 0.03 67 935.2
20260831202904 62 80 3.5 7.0 0.12 0.03 0.03 71 935.1
20260831202359 64 137 7.0 8.7 0.12 0.02 0.02 69 935.5
20260831201859 66 144 4.3 7.0 0.07 0.01 0.01 70 935.3
20260831201358 67 31 1.7 6.1 0.00 0.00 0.00 64 935.5
20260831200854 68 119 5.2 7.0 0.00 0.00 0.00 57 935.3
20260831200349 68 115 2.6 6.1 0.00 0.00 0.00 59 935.3
20260831195844 69 138 6.1 7.8 0.00 0.00 0.00 54 935.5
20260831195340 71 137 1.7 7.0 0.00 0.00 0.00 55 935.3
20260831194835 71 114 5.2 7.8 0.00 0.00 0.00 45 935.3
20260831194330 72 143 5.2 8.7 0.00 0.00 0.00 45 935.7
20260831193829 73 131 3.5 13.0 0.00 0.00 0.00 45 935.5
20260831193325 75 69 6.1 13.9 0.00 0.00 0.00 41 935.6
20260831192820 77 87 0.0 0.9 0.00 0.00 0.00 38 935.3
20260831192320 78 115 0.0 0.0 0.00 0.00 0.00 34 935.7
20260831191816 77 44 0.0 0.0 0.00 0.00 0.00 36 935.7
20260831191312 75 84 0.0 0.0 0.00 0.00 0.00 40 935.8
20260831190808 77 69 0.0 0.0 0.00 0.00 0.00 40 935.5
20260831190308 78 61 0.0 0.9 0.00 0.00 0.00 35 935.8
20260831185807 77 288 0.0 0.9 0.00 0.00 0.00 35 935.7
20260831185306 77 341 3.5 5.2 0.00 0.00 0.00 38 935.9
20260831184802 77 4 0.0 4.3 0.00 0.00 0.00 38 936.2
20260831184258 77 19 0.0 0.9 0.00 0.00 0.00 37 936.2
20260831183753 76 333 4.3 5.2 0.00 0.00 0.00 38 936.5
20260831183252 77 9 0.0 0.0 0.00 0.00 0.00 38 936.5
20260831182751 75 4 0.0 5.2 0.00 0.00 0.00 38 936.5
20260831182246 75 351 4.3 6.1 0.00 0.00 0.00 43 936.5
20260831181741 75 338 0.0 5.2 0.00 0.00 0.00 42 936.4
20260831181237 74 359 1.7 5.2 0.00 0.00 0.00 43 936.4
20260831180737 75 337 0.0 0.0 0.00 0.00 0.00 41 936.5
20260831180232 75 335 1.7 2.6 0.00 0.00 0.00 43 936.6
20260831175731 73 348 4.3 7.0 0.00 0.00 0.00 45 936.4
20260831175228 73 357 2.6 5.2 0.00 0.00 0.00 44 936.8
20260831174722 73 332 0.0 4.3 0.00 0.00 0.00 47 936.6
20260831174218 71 6 2.6 4.3 0.00 0.00 0.00 47 936.8
20260831173717 71 14 0.0 5.2 0.00 0.00 0.00 50 936.9
20260831173212 71 14 3.5 6.1 0.00 0.00 0.00 50 936.9
20260831172712 71 10 0.9 2.6 0.00 0.00 0.00 48 936.8
20260831172208 70 349 0.9 1.7 0.00 0.00 0.00 49 936.9
20260831171702 69 250 0.9 2.6 0.00 0.00 0.00 52 936.9
20260831171200 68 297 0.0 2.6 0.00 0.00 0.00 53 937.0
20260831170656 68 354 0.0 0.0 0.00 0.00 0.00 55 937.0
20260831170152 68 299 2.6 2.6 0.00 0.00 0.00 56 936.9
20260831165648 67 4 2.6 4.3 0.00 0.00 0.00 57 936.9
20260831165144 66 8 0.0 1.7 0.00 0.00 0.00 55 936.9
20260831164640 66 344 0.9 2.6 0.00 0.00 0.00 58 937.0
20260831164136 65 353 2.6 4.3 0.00 0.00 0.00 60 936.9
20260831163631 64 318 2.6 4.3 0.00 0.00 0.00 60 936.9
20260831163126 64 356 2.6 2.6 0.00 0.00 0.00 59 936.7
20260831162625 63 334 2.6 4.3 0.00 0.00 0.00 60 936.7
20260831162123 63 7 0.0 0.0 0.00 0.00 0.00 62 936.6
20260831161619 62 7 2.6 4.3 0.00 0.00 0.00 61 936.7
20260831161116 62 347 0.9 4.3 0.00 0.00 0.00 63 936.6
20260831160615 61 7 2.6 4.3 0.00 0.00 0.00 63 936.8
20260831160111 61 5 0.0 0.0 0.00 0.00 0.00 62 936.8
20260831155610 60 29 0.0 0.9 0.00 0.00 0.00 63 936.6
20260831155106 60 10 0.0 1.7 0.00 0.00 0.00 62 936.8
20260831154602 60 357 1.7 2.6 0.00 0.00 0.00 62 937.0
20260831154102 60 353 1.7 2.6 0.00 0.00 0.00 63 937.0
20260831153601 59 359 1.7 2.6 0.00 0.00 0.00 64 937.0
20260831153058 59 1 0.9 1.7 0.00 0.00 0.00 63 937.0
20260831152553 59 4 2.6 2.6 0.00 0.00 0.00 65 936.9
20260831152049 59 15 1.7 1.7 0.00 0.00 0.00 65 937.0
20260831151548 59 16 1.7 1.7 0.00 0.00 0.00 65 937.2
20260831151043 60 47 0.0 0.0 0.00 0.00 0.00 64 937.0
20260831150538 59 55 0.0 0.0 0.00 0.00 0.00 65 937.0
20260831150034 58 46 0.0 0.0 0.00 0.00 0.00 66 937.3
20260831145528 57 45 0.0 0.9 0.00 0.00 0.00 68 937.0
20260831145024 57 66 0.9 2.6 0.00 0.00 0.00 67 937.2
20260831144520 56 53 0.0 0.9 0.00 0.00 0.00 68 937.0
20260831144015 55 65 0.9 1.7 0.00 0.00 0.00 69 936.9
20260831143509 54 75 0.0 1.7 0.00 0.00 0.00 71 937.0
20260831143005 53 81 0.9 1.7 0.00 0.00 0.00 72 937.0
20260831142501 52 46 0.0 0.9 0.00 0.00 0.00 74 937.2
20260831141956 52 83 0.9 1.7 0.00 0.00 0.00 74 936.9
20260831141455 51 85 0.9 4.3 0.00 0.00 0.00 75 936.9
20260831140950 51 78 0.9 1.7 0.00 0.00 0.00 76 936.6
20260831140445 50 64 0.9 2.6 0.00 0.00 0.00 76 936.5
20260831135944 50 46 0.0 0.0 0.00 0.00 0.00 77 936.1
20260831135443 50 83 1.7 2.6 0.00 0.00 0.00 77 936.2
20260831134938 49 50 0.0 0.0 0.00 0.00 0.00 79 936.0
20260831134434 48 76 0.9 1.7 0.00 0.00 0.00 80 936.1
20260831133934 47 79 0.9 1.7 0.00 0.00 0.00 82 936.1
20260831133434 46 48 0.0 0.9 0.00 0.00 0.00 83 935.9
20260831132929 46 70 0.9 2.6 0.00 0.00 0.00 84 935.8
20260831132425 45 79 1.7 2.6 0.00 0.00 0.00 85 935.7
20260831131924 45 72 1.7 1.7 0.00 0.00 0.00 87 935.8
20260831131419 44 58 0.9 1.7 0.00 0.00 0.00 87 935.7
20260831130915 43 62 1.7 2.6 0.00 0.00 0.00 88 935.7
20260831130410 43 129 1.7 2.6 0.00 0.00 0.00 87 935.8
20260831125909 44 79 0.9 1.7 0.00 0.00 0.00 87 935.7
20260831125405 44 86 1.7 2.6 0.00 0.00 0.00 88 935.7
20260831124900 44 110 1.7 1.7 0.00 0.00 0.00 88 935.8
20260831124356 43 95 1.7 1.7 0.00 0.00 0.00 88 935.7
20260831123856 44 47 0.0 1.7 0.00 0.00 0.00 88 935.7
20260831123355 44 55 0.0 2.6 0.00 0.00 0.00 88 935.7
20260831122855 43 72 1.7 1.7 0.00 0.00 0.00 88 935.7
20260831122351 43 91 1.7 1.7 0.00 0.00 0.00 88 935.8
20260831121846 44 98 1.7 1.7 0.00 0.00 0.00 88 935.7
20260831121342 44 65 0.9 1.7 0.00 0.00 0.00 87 935.8
20260831120837 44 71 0.9 1.7 0.00 0.00 0.00 87 935.6
20260831120331 44 79 1.7 1.7 0.00 0.00 0.00 87 935.8
20260831115827 44 49 0.0 1.7 0.00 0.00 0.00 87 935.5
20260831115324 44 85 2.6 2.6 0.00 0.00 0.00 87 935.6
20260831114822 44 88 2.6 2.6 0.00 0.00 0.00 87 935.6
20260831114321 44 76 2.6 2.6 0.00 0.00 0.00 87 935.5
20260831113818 44 60 1.7 1.7 0.00 0.00 0.00 87 935.6
20260831113317 44 67 0.9 1.7 0.00 0.00 0.00 87 935.5
20260831112812 45 34 0.0 1.7 0.00 0.00 0.00 87 935.6
20260831112307 45 87 0.9 1.7 0.00 0.00 0.00 87 935.5
20260831111802 45 69 0.9 1.7 0.00 0.00 0.00 88 935.6
20260831111259 44 92 1.7 2.6 0.00 0.00 0.00 88 935.5
20260831110754 44 75 0.9 1.7 0.00 0.00 0.00 87 935.6
20260831110249 45 79 0.9 1.7 0.00 0.00 0.00 87 935.6
20260831105747 45 44 0.0 0.0 0.00 0.00 0.00 86 935.6
20260831105243 45 62 0.9 1.7 0.00 0.00 0.00 86 935.7
20260831104738 46 78 1.7 2.6 0.00 0.00 0.00 86 935.7
20260831104235 46 82 1.7 1.7 0.00 0.00 0.00 86 935.7
20260831103734 46 80 2.6 2.6 0.00 0.00 0.00 86 935.6
20260831103230 46 68 0.9 1.7 0.00 0.00 0.00 86 935.7
20260831102729 46 31 0.0 0.9 0.00 0.00 0.00 86 935.3
20260831102225 46 130 1.7 2.6 0.00 0.00 0.00 86 935.6
20260831101720 46 41 0.0 1.7 0.00 0.00 0.00 86 935.7
20260831101216 46 97 0.9 2.6 0.00 0.00 0.00 86 935.6
20260831100711 46 77 0.9 2.6 0.00 0.00 0.00 86 935.3
20260831100207 46 73 0.0 1.7 0.00 0.00 0.00 86 935.5
20260831095705 46 52 0.0 0.9 0.00 0.00 0.00 86 935.6
20260831095201 46 44 0.0 0.9 0.00 0.00 0.00 86 935.5
20260831094656 46 68 0.0 0.9 0.00 0.00 0.00 86 935.5
20260831094152 46 62 0.9 1.7 0.00 0.00 0.00 85 935.1
20260831093647 47 113 0.0 0.0 0.00 0.00 0.00 85 935.3
20260831093143 47 114 0.0 0.0 0.00 0.00 0.00 86 935.1
20260831092639 47 67 0.0 0.0 0.00 0.00 0.00 86 935.6
20260831092135 47 49 0.0 0.0 0.00 0.00 0.00 86 935.2
20260831091634 47 48 0.0 0.0 0.00 0.00 0.00 86 935.5
20260831091130 47 63 0.0 0.0 0.00 0.00 0.00 85 935.5
20260831090625 48 56 0.0 0.0 0.00 0.00 0.00 85 935.2
20260831090121 48 51 0.0 0.0 0.00 0.00 0.00 85 935.3
20260831085616 48 70 0.0 0.0 0.00 0.00 0.00 85 935.3
20260831085112 48 59 0.0 0.0 0.00 0.00 0.00 85 935.3
20260831084607 48 79 0.0 0.0 0.00 0.00 0.00 85 935.2
20260831084103 48 53 0.0 0.0 0.00 0.00 0.00 85 935.1
20260831083559 48 81 0.0 0.0 0.00 0.00 0.00 86 935.2
20260831083054 47 51 0.0 0.0 0.00 0.00 0.00 86 935.2
20260831082553 48 67 0.0 0.0 0.00 0.00 0.00 86 935.2
20260831082048 48 63 0.0 1.7 0.00 0.00 0.00 86 935.2
20260831081544 48 137 1.7 4.3 0.00 0.00 0.00 86 935.3